User: anonymous   Login
Location: Newark
(37.8444°N, 127.0614°E)
Time: 21:19:40
(UTC+00:00)
Language:

XW-2F - Orbit

View from above orbital plane
View from above orbital plane
View from above satellite
View from above satellite

Ground track
Ground track

The orbit data is extracted from the following two-line orbital elements,

1 40910U 15049M   20020.51441828  .00000555  00000-0  30861-4 0  9997
2 40910  97.4664  26.1397 0015188 153.1401  12.2804 15.17656688239743
Epoch (UTC): 20 January 2020 12:20:45
Eccentricity: 0.0015188
inclination: 97.4664°
perigee height: 502 km
apogee height: 523 km
right ascension of ascending node: 26.1397°
argument of perigee: 153.1401°
revolutions per day: 15.17656688
mean anomaly at epoch: 12.2804°
orbit number at epoch: 23974

The dashed part of the orbit path shows where the satellite is in the earth's shadow,  

DLR